Time[GMT],dominant_wave_period_2[s](0m),significant_wave_height_2[m](0m)
2019-08-19 16:00,6.40,1.14
2019-08-19 16:30,6.40,1.15
2019-08-19 17:00,8.00,1.23
2019-08-19 17:30,6.40,1.14
2019-08-19 18:00,6.40,1.14
2019-08-19 18:30,5.33,1.20
2019-08-19 19:00,8.00,1.18
2019-08-19 19:30,6.40,1.09
2019-08-19 20:00,8.00,1.18
2019-08-19 20:30,6.40,1.07
2019-08-19 21:00,6.40,1.11
2019-08-19 21:30,6.40,1.16
2019-08-19 22:00,6.40,1.00
2019-08-19 22:30,6.40,1.14
2019-08-19 23:00,6.40,1.05
2019-08-19 23:30,5.33,1.07
2019-08-20 00:00,6.40,1.07
2019-08-20 00:30,6.40,1.08
2019-08-20 01:00,6.40,1.10
2019-08-20 01:30,6.40,1.12
2019-08-20 02:00,5.33,1.20
2019-08-20 02:30,6.40,1.05
2019-08-20 03:00,4.57,1.07
2019-08-20 03:30,5.33,1.20
2019-08-20 04:00,5.33,1.14
2019-08-20 04:30,5.33,1.09
2019-08-20 05:00,5.33,1.09
2019-08-20 05:30,5.33,1.16
2019-08-20 06:00,4.57,1.12
2019-08-20 06:30,5.33,1.08
2019-08-20 07:00,6.40,1.13
2019-08-20 07:30,5.33,1.13
2019-08-20 08:00,6.40,1.07
2019-08-20 08:30,6.40,1.10
2019-08-20 09:00,5.33,1.07
2019-08-20 09:30,5.33,1.03
2019-08-20 10:00,5.33,0.99
2019-08-20 10:30,5.33,1.15
2019-08-20 11:00,5.33,1.03
2019-08-20 11:30,5.33,1.17
2019-08-20 12:00,5.33,0.98
2019-08-20 12:30,6.40,1.07
2019-08-20 13:00,5.33,1.04
2019-08-20 13:30,6.40,1.12
2019-08-20 14:00,6.40,1.03
2019-08-20 14:30,5.33,1.10
2019-08-20 15:00,5.33,1.09
2019-08-20 15:30,5.33,1.12
2019-08-20 16:00,5.33,1.08
2019-08-20 16:30,5.33,1.08
2019-08-20 17:00,5.33,1.01
2019-08-20 17:30,6.40,1.10
2019-08-20 18:00,6.40,1.10
2019-08-20 18:30,6.40,0.99
2019-08-20 19:00,6.40,1.07
2019-08-20 19:30,5.33,1.09
2019-08-20 20:00,5.33,1.00
2019-08-20 20:30,6.40,1.08
2019-08-20 21:00,6.40,1.10
2019-08-20 21:30,6.40,1.08
2019-08-20 22:00,6.40,1.13
2019-08-20 22:30,5.33,1.08
2019-08-20 23:00,5.33,1.01
2019-08-20 23:30,6.40,1.05
2019-08-21 00:00,6.40,1.07
2019-08-21 00:30,6.40,1.11
2019-08-21 01:00,6.40,1.13
2019-08-21 01:30,6.40,1.16
2019-08-21 02:00,6.40,1.12
2019-08-21 02:30,5.33,1.08
2019-08-21 03:00,6.40,1.08
2019-08-21 03:30,6.40,1.09
2019-08-21 04:00,6.40,1.03
2019-08-21 04:30,5.33,1.03
2019-08-21 05:00,6.40,1.08
2019-08-21 05:30,5.33,1.03
2019-08-21 06:00,5.33,0.99
2019-08-21 06:30,4.57,0.98
2019-08-21 07:00,5.33,1.07
2019-08-21 07:30,5.33,0.97
2019-08-21 08:00,5.33,0.94
2019-08-21 08:30,5.33,0.95
2019-08-21 09:00,4.57,0.93
2019-08-21 09:30,6.40,0.94
2019-08-21 10:00,4.57,1.03
2019-08-21 10:30,5.33,0.94
2019-08-21 11:00,4.57,0.93
2019-08-21 11:30,5.33,1.04
2019-08-21 12:00,5.33,1.07
2019-08-21 12:30,5.33,1.00
2019-08-21 13:00,4.57,1.01
2019-08-21 13:30,5.33,1.11
2019-08-21 14:00,5.33,1.04
2019-08-21 14:30,5.33,1.03
2019-08-21 15:00,5.33,1.04
2019-08-21 15:30,5.33,1.08
2019-08-21 16:00,5.33,1.08
2019-08-21 16:30,5.33,1.08
2019-08-21 17:00,5.33,1.08
2019-08-21 17:30,4.57,1.07
2019-08-21 18:00,5.33,1.15
2019-08-21 18:30,5.33,1.19
2019-08-21 19:00,5.33,1.23
2019-08-21 19:30,4.57,1.15
2019-08-21 20:00,5.33,1.20
2019-08-21 20:30,5.33,1.26
2019-08-21 21:00,5.33,1.07
2019-08-21 21:30,5.33,1.02
2019-08-21 22:00,5.33,1.08
2019-08-21 22:30,5.33,1.07
2019-08-21 23:00,5.33,1.06
2019-08-21 23:30,5.33,1.09
2019-08-22 00:00,5.33,1.09
2019-08-22 00:30,5.33,1.09
2019-08-22 01:00,6.40,1.09
2019-08-22 01:30,5.33,1.06
2019-08-22 02:00,5.33,0.97
2019-08-22 02:30,5.33,1.05
2019-08-22 03:00,6.40,1.03
2019-08-22 03:30,6.40,0.93
2019-08-22 04:00,5.33,0.97
2019-08-22 04:30,5.33,0.89
2019-08-22 05:00,6.40,0.96
2019-08-22 05:30,5.33,0.87
2019-08-22 06:00,5.33,0.88
2019-08-22 06:30,6.40,0.83
2019-08-22 07:00,5.33,0.83
2019-08-22 07:30,5.33,0.78
2019-08-22 08:00,5.33,0.81
2019-08-22 08:30,6.40,0.76
2019-08-22 09:00,5.33,0.74
2019-08-22 09:30,5.33,0.77
2019-08-22 10:00,5.33,0.73
2019-08-22 10:30,6.40,0.71
2019-08-22 11:00,5.33,0.79
2019-08-22 11:30,5.33,0.74
2019-08-22 12:00,5.33,0.87
2019-08-22 12:30,6.40,0.78
2019-08-22 13:00,5.33,0.82
2019-08-22 13:30,6.40,0.86
2019-08-22 14:00,5.33,0.82
2019-08-22 14:30,5.33,0.87
2019-08-22 15:00,6.40,0.90
2019-08-22 15:30,5.33,1.00
2019-08-22 16:00,6.40,1.08
2019-08-22 16:30,6.40,1.05
2019-08-22 17:00,5.33,0.97
2019-08-22 17:30,6.40,1.13
2019-08-22 18:00,6.40,1.19
2019-08-22 18:30,6.40,1.25
2019-08-22 19:00,5.33,1.25
2019-08-22 19:30,6.40,1.33
2019-08-22 20:00,6.40,1.28
2019-08-22 20:30,6.40,1.28
2019-08-22 21:00,6.40,1.36
2019-08-22 21:30,6.40,1.30
2019-08-22 22:00,6.40,1.15
2019-08-22 22:30,6.40,1.20
2019-08-22 23:00,6.40,1.18
2019-08-22 23:30,6.40,0.97
2019-08-23 00:00,6.40,1.13
2019-08-23 00:30,6.40,1.15
2019-08-23 01:00,6.40,1.14
2019-08-23 01:30,6.40,1.14
2019-08-23 02:00,6.40,1.14
2019-08-23 02:30,6.40,1.25
2019-08-23 03:00,6.40,1.17
2019-08-23 03:30,6.40,1.23
2019-08-23 04:00,6.40,1.25
2019-08-23 04:30,6.40,1.28
2019-08-23 05:00,6.40,1.28
2019-08-23 05:30,6.40,1.24
2019-08-23 06:00,6.40,1.23
2019-08-23 06:30,6.40,1.17
2019-08-23 07:00,6.40,1.15
2019-08-23 07:30,6.40,1.20
2019-08-23 08:00,6.40,1.14
2019-08-23 08:30,6.40,1.15
2019-08-23 09:00,6.40,1.18
2019-08-23 09:30,8.00,1.27
2019-08-23 10:00,5.33,1.25
2019-08-23 10:30,6.40,1.13
2019-08-23 11:00,6.40,1.08
2019-08-23 11:30,5.33,1.20
2019-08-23 12:00,6.40,1.25
2019-08-23 12:30,6.40,1.29
2019-08-23 13:00,6.40,1.33
2019-08-23 13:30,5.33,1.21
2019-08-23 14:00,6.40,1.37
2019-08-23 14:30,6.40,1.37
2019-08-23 15:00,6.40,1.40
2019-08-23 15:30,6.40,1.33
2019-08-23 16:00,6.40,1.30
2019-08-23 16:30,6.40,1.25
2019-08-23 17:00,5.33,1.27
2019-08-23 17:30,5.33,1.28
2019-08-23 18:00,6.40,1.17
2019-08-23 18:30,5.33,1.30
2019-08-23 19:00,5.33,1.15
2019-08-23 19:30,5.33,1.37
2019-08-23 20:00,5.33,1.14
2019-08-23 20:30,4.57,1.18
2019-08-23 21:00,6.40,1.08
2019-08-23 21:30,4.57,1.09
2019-08-23 22:00,8.00,1.22
2019-08-23 22:30,5.33,1.07
2019-08-23 23:00,2.29,0.29
2019-08-23 23:30,2.67,0.36
2019-08-24 00:00,8.00,1.11
2019-08-24 00:30,8.00,1.10
2019-08-24 01:00,5.33,1.12
2019-08-24 01:30,6.40,1.08
2019-08-24 02:00,5.33,1.06
2019-08-24 02:30,6.40,1.10
2019-08-24 03:00,8.00,1.20
2019-08-24 03:30,6.40,1.18
2019-08-24 04:00,6.40,1.21
2019-08-24 04:30,6.40,1.19
2019-08-24 05:00,6.40,1.19
2019-08-24 05:30,8.00,1.11
2019-08-24 06:00,6.40,1.22
2019-08-24 06:30,6.40,1.18
2019-08-24 07:00,6.40,1.15
2019-08-24 07:30,6.40,1.14
2019-08-24 08:00,5.33,1.16
2019-08-24 08:30,5.33,1.13
2019-08-24 09:00,6.40,1.16
2019-08-24 09:30,6.40,1.17
2019-08-24 10:00,6.40,1.19
2019-08-24 10:30,6.40,1.06
2019-08-24 11:00,6.40,1.17
2019-08-24 11:30,6.40,1.13
2019-08-24 12:00,5.33,1.04
2019-08-24 12:30,6.40,1.09
2019-08-24 13:00,5.33,1.08
2019-08-24 13:30,5.33,1.09
2019-08-24 14:00,6.40,1.08
2019-08-24 14:30,5.33,1.03
2019-08-24 15:00,6.40,1.15
2019-08-24 15:30,5.33,0.91
2019-08-24 16:00,6.40,1.01
2019-08-24 16:30,5.33,1.00
2019-08-24 17:00,4.57,1.08
2019-08-24 17:30,4.57,0.88
2019-08-24 18:00,6.40,1.05
2019-08-24 18:30,5.33,1.07
2019-08-24 19:00,5.33,0.92
2019-08-24 19:30,6.40,1.09
2019-08-24 20:00,4.57,0.86
2019-08-24 20:30,5.33,0.94
2019-08-24 21:00,4.00,0.83
2019-08-24 21:30,4.00,0.84
2019-08-24 22:00,4.57,0.82
2019-08-24 22:30,4.00,0.83
2019-08-24 23:00,4.57,0.81
2019-08-24 23:30,4.00,0.83
2019-08-25 00:00,4.00,0.67
2019-08-25 00:30,4.57,0.60
2019-08-25 01:00,8.00,0.90
2019-08-25 01:30,4.57,0.66
2019-08-25 02:00,8.00,0.88
2019-08-25 02:30,4.57,0.73
2019-08-25 03:00,8.00,0.88
2019-08-25 03:30,8.00,0.93
2019-08-25 04:00,6.40,0.88
2019-08-25 04:30,6.40,0.88
2019-08-25 05:00,5.33,0.89
2019-08-25 05:30,4.57,0.88
2019-08-25 06:00,6.40,0.85
2019-08-25 06:30,8.00,0.98
2019-08-25 07:00,8.00,0.94
2019-08-25 07:30,6.40,1.01
2019-08-25 08:00,8.00,0.97
2019-08-25 08:30,8.00,0.95
2019-08-25 09:00,5.33,0.99
2019-08-25 09:30,4.57,0.96
2019-08-25 10:00,6.40,0.97
2019-08-25 10:30,5.33,0.94
2019-08-25 11:00,4.57,1.02
2019-08-25 11:30,5.33,0.91
2019-08-25 12:00,4.57,1.00
2019-08-25 12:30,5.33,1.10
2019-08-25 13:00,4.57,1.00
2019-08-25 13:30,4.57,0.94
2019-08-25 14:00,4.57,1.04
2019-08-25 14:30,6.40,1.07
2019-08-25 15:00,5.33,1.06
2019-08-25 15:30,5.33,1.04
2019-08-25 16:00,5.33,1.00
2019-08-25 16:30,4.57,0.99
2019-08-25 17:00,5.33,0.97
2019-08-25 17:30,6.40,0.98
2019-08-25 18:00,5.33,0.96
2019-08-25 18:30,5.33,1.00
2019-08-25 19:00,6.40,1.02
2019-08-25 19:30,5.33,1.02
2019-08-25 20:00,5.33,0.97
2019-08-25 20:30,4.57,0.88
2019-08-25 21:00,5.33,0.95
2019-08-25 21:30,5.33,0.89
2019-08-25 22:00,6.40,0.94
2019-08-25 22:30,3.56,0.57
2019-08-25 23:00,4.57,0.74
2019-08-25 23:30,5.33,0.77
2019-08-26 00:00,6.40,0.88
2019-08-26 00:30,8.00,0.86
2019-08-26 01:00,1.19,0.01
2019-08-26 01:30,5.33,0.77
2019-08-26 02:00,6.40,0.70
2019-08-26 02:30,6.40,0.79
2019-08-26 03:00,8.00,0.80
2019-08-26 03:30,6.40,0.69
2019-08-26 04:00,6.40,0.82
2019-08-26 04:30,8.00,0.86
2019-08-26 05:00,6.40,0.81
2019-08-26 05:30,8.00,0.82
2019-08-26 06:00,8.00,0.88
2019-08-26 06:30,8.00,0.88
2019-08-26 07:00,8.00,0.87
2019-08-26 07:30,8.00,0.88
2019-08-26 08:00,8.00,0.89
2019-08-26 08:30,4.57,0.89
2019-08-26 09:00,4.57,0.91
2019-08-26 09:30,4.57,0.91
2019-08-26 10:00,8.00,0.97
2019-08-26 10:30,4.57,0.99
2019-08-26 11:00,4.57,0.92
2019-08-26 11:30,4.00,0.83
2019-08-26 12:00,4.57,0.97
2019-08-26 12:30,4.57,0.94
2019-08-26 13:00,4.57,0.88
2019-08-26 13:30,8.00,0.98
2019-08-26 14:00,4.57,0.92
2019-08-26 14:30,6.40,0.96
2019-08-26 15:00,4.57,0.87
2019-08-26 15:30,6.40,0.95
2019-08-26 16:00,6.40,0.96
2019-08-26 16:30,4.57,0.90
2019-08-26 17:00,4.57,0.86
2019-08-26 17:30,4.57,0.94
2019-08-26 18:00,4.57,0.90
2019-08-26 18:30,4.57,0.87
2019-08-26 19:00,4.57,0.85
2019-08-26 19:30,4.00,0.95
2019-08-26 20:00,4.57,0.94
2019-08-26 20:30,4.00,0.85
2019-08-26 21:00,6.40,0.91
2019-08-26 21:30,6.40,0.88
2019-08-26 22:00,5.33,0.85
2019-08-26 22:30,6.40,0.85
2019-08-26 23:00,6.40,0.81
2019-08-26 23:30,5.33,0.75
2019-08-27 00:00,6.40,0.72
2019-08-27 00:30,6.40,0.73
2019-08-27 01:00,6.40,0.78
2019-08-27 01:30,,
2019-08-27 02:00,6.40,0.83
2019-08-27 02:30,6.40,0.87
2019-08-27 03:00,4.57,0.79
2019-08-27 03:30,6.40,0.94
2019-08-27 04:00,6.40,0.93
2019-08-27 04:30,4.00,0.87
2019-08-27 05:00,4.57,0.84
2019-08-27 05:30,4.57,0.68
2019-08-27 06:00,4.57,0.81
2019-08-27 06:30,4.57,0.73
2019-08-27 07:00,4.57,0.87
2019-08-27 07:30,4.57,0.76
2019-08-27 08:00,6.40,0.82
2019-08-27 08:30,4.57,0.78
2019-08-27 09:00,4.57,0.80
2019-08-27 09:30,4.57,0.80
2019-08-27 10:00,4.57,0.78
2019-08-27 10:30,4.57,0.80
2019-08-27 11:00,4.57,0.76
2019-08-27 11:30,4.57,0.75
2019-08-27 12:00,6.40,0.73
2019-08-27 12:30,4.57,0.75
2019-08-27 13:00,4.57,0.75
2019-08-27 13:30,4.57,0.79
2019-08-27 14:00,4.57,0.72
2019-08-27 14:30,4.57,0.68
2019-08-27 15:00,4.57,0.80
2019-08-27 15:30,4.57,0.79
2019-08-27 16:00,6.40,0.70
2019-08-27 16:30,6.40,0.73
2019-08-27 17:00,4.57,0.63
2019-08-27 17:30,4.57,0.65
2019-08-27 18:00,5.33,0.69
2019-08-27 18:30,4.57,0.64
2019-08-27 19:00,6.40,0.76
2019-08-27 19:30,4.57,0.60
2019-08-27 20:00,4.57,0.69
2019-08-27 20:30,4.57,0.73
2019-08-27 21:00,4.00,0.68
2019-08-27 21:30,4.57,0.69
2019-08-27 22:00,4.00,0.77
2019-08-27 22:30,4.00,0.85
2019-08-27 23:00,4.57,0.85
2019-08-27 23:30,4.00,0.93
2019-08-28 00:00,4.57,1.00
2019-08-28 00:30,4.57,1.00
2019-08-28 01:00,4.57,1.05
2019-08-28 01:30,4.57,1.06
2019-08-28 02:00,5.33,1.06
2019-08-28 02:30,5.33,1.05
2019-08-28 03:00,5.33,1.07
2019-08-28 03:30,5.33,1.02
2019-08-28 04:00,5.33,1.05
2019-08-28 04:30,5.33,1.05
2019-08-28 05:00,5.33,1.01
2019-08-28 05:30,5.33,0.98
2019-08-28 06:00,5.33,1.00
2019-08-28 06:30,5.33,0.97
2019-08-28 07:00,5.33,0.92
2019-08-28 07:30,5.33,1.00
2019-08-28 08:00,5.33,0.98
2019-08-28 08:30,4.57,0.96
2019-08-28 09:00,5.33,1.02
2019-08-28 09:30,5.33,0.90
2019-08-28 10:00,5.33,0.90
2019-08-28 10:30,5.33,0.92
2019-08-28 11:00,5.33,0.92
2019-08-28 11:30,5.33,1.17
2019-08-28 12:00,5.33,1.04
2019-08-28 12:30,5.33,1.06
2019-08-28 13:00,5.33,1.02
2019-08-28 13:30,5.33,1.09
2019-08-28 14:00,6.40,1.05
2019-08-28 14:30,5.33,1.11
2019-08-28 15:00,5.33,1.14
2019-08-28 15:30,5.33,1.08
2019-08-28 16:00,5.33,1.14
2019-08-28 16:30,5.33,0.92
2019-08-28 17:00,5.33,0.99
2019-08-28 17:30,5.33,1.08
2019-08-28 18:00,5.33,1.06
2019-08-28 18:30,5.33,1.04
2019-08-28 19:00,5.33,0.98
2019-08-28 19:30,5.33,0.98
2019-08-28 20:00,5.33,0.91
2019-08-28 20:30,5.33,0.93
2019-08-28 21:00,5.33,0.94
2019-08-28 21:30,5.33,0.85
2019-08-28 22:00,5.33,0.93
2019-08-28 22:30,6.40,1.19
2019-08-28 23:00,8.00,1.74
2019-08-28 23:30,8.00,1.62
2019-08-29 00:00,8.00,1.46
2019-08-29 00:30,8.00,1.39
2019-08-29 01:00,8.00,1.24
2019-08-29 01:30,8.00,1.13
2019-08-29 02:00,8.00,0.94
2019-08-29 02:30,8.00,0.88
2019-08-29 03:00,6.40,0.72
2019-08-29 03:30,6.40,0.71
2019-08-29 04:00,6.40,0.75
2019-08-29 04:30,8.00,0.65
2019-08-29 05:00,8.00,0.75
2019-08-29 05:30,8.00,0.65
2019-08-29 06:00,8.00,0.67
2019-08-29 06:30,6.40,0.64
2019-08-29 07:00,8.00,0.63
2019-08-29 07:30,6.40,0.58
2019-08-29 08:00,6.40,0.62
2019-08-29 08:30,8.00,0.63
2019-08-29 09:00,6.40,0.63
2019-08-29 09:30,8.00,0.63
2019-08-29 10:00,6.40,0.63
2019-08-29 10:30,6.40,0.62
2019-08-29 11:00,6.40,0.59
2019-08-29 11:30,6.40,0.62
2019-08-29 12:00,8.00,0.66
2019-08-29 12:30,10.67,0.65
2019-08-29 13:00,4.00,0.32
2019-08-29 13:30,4.00,0.32
2019-08-29 14:00,6.40,0.56
2019-08-29 14:30,6.40,0.54
2019-08-29 15:00,6.40,0.53
2019-08-29 15:30,6.40,0.49
2019-08-29 16:00,6.40,0.57
2019-08-29 16:30,2.91,0.21
2019-08-29 17:00,10.67,0.71
2019-08-29 17:30,10.67,0.68
2019-08-29 18:00,10.67,0.69
2019-08-29 18:30,10.67,0.74
2019-08-29 19:00,2.91,0.20
2019-08-29 19:30,10.67,0.85
2019-08-29 20:00,10.67,0.78
2019-08-29 20:30,10.67,0.88
2019-08-29 21:00,10.67,0.89
2019-08-29 21:30,10.67,0.95
2019-08-29 22:00,10.67,1.00
2019-08-29 22:30,6.40,0.74
2019-08-29 23:00,6.40,0.71
2019-08-29 23:30,10.67,0.87
2019-08-30 00:00,10.67,0.87
2019-08-30 00:30,10.67,0.82
2019-08-30 01:00,10.67,0.83
2019-08-30 01:30,10.67,0.78
2019-08-30 02:00,10.67,0.86
2019-08-30 02:30,10.67,0.81
2019-08-30 03:00,10.67,0.80
2019-08-30 03:30,10.67,0.85
2019-08-30 04:00,10.67,0.77
2019-08-30 04:30,10.67,0.77
2019-08-30 05:00,10.67,0.74
2019-08-30 05:30,10.67,0.83
2019-08-30 06:00,8.00,0.78
2019-08-30 06:30,10.67,0.91
2019-08-30 07:00,10.67,0.81
2019-08-30 07:30,10.67,0.86
2019-08-30 08:00,8.00,0.87
2019-08-30 08:30,10.67,0.85
2019-08-30 09:00,10.67,0.88
2019-08-30 09:30,10.67,0.89
2019-08-30 10:00,5.33,0.91
2019-08-30 10:30,10.67,0.88
2019-08-30 11:00,6.40,0.68
2019-08-30 11:30,10.67,0.83
2019-08-30 12:00,10.67,0.86
2019-08-30 12:30,5.33,0.74
2019-08-30 13:00,,
2019-08-30 13:30,5.33,0.60
2019-08-30 14:00,5.33,0.65
2019-08-30 14:30,5.33,0.64
2019-08-30 15:00,5.33,0.60
2019-08-30 15:30,5.33,0.61
2019-08-30 16:00,5.33,0.67
2019-08-30 16:30,4.00,0.80
2019-08-30 17:00,4.57,0.81
2019-08-30 17:30,4.57,0.76
2019-08-30 18:00,4.00,0.79
2019-08-30 18:30,4.00,0.83
2019-08-30 19:00,4.00,0.77
2019-08-30 19:30,4.00,0.79
2019-08-30 20:00,4.00,0.84
2019-08-30 20:30,4.00,0.79
2019-08-30 21:00,4.00,0.72
2019-08-30 21:30,4.00,0.68
2019-08-30 22:00,4.00,0.65
2019-08-30 22:30,4.00,0.69
2019-08-30 23:00,4.00,0.61
2019-08-30 23:30,4.00,0.61
2019-08-31 00:00,4.00,0.55
2019-08-31 00:30,4.00,0.53
2019-08-31 01:00,4.00,0.51
2019-08-31 01:30,4.00,0.50
2019-08-31 02:00,8.00,0.77
2019-08-31 02:30,8.00,0.78
2019-08-31 03:00,8.00,0.83
2019-08-31 03:30,4.00,0.44
2019-08-31 04:00,4.00,0.40
2019-08-31 04:30,4.00,0.41
2019-08-31 05:00,4.00,0.39
2019-08-31 05:30,4.00,0.36
2019-08-31 06:00,4.00,0.39
2019-08-31 06:30,4.57,0.47
2019-08-31 07:00,4.00,0.46
2019-08-31 07:30,4.00,0.50
2019-08-31 08:00,4.00,0.48
2019-08-31 08:30,8.00,0.74
2019-08-31 09:00,8.00,0.80
2019-08-31 09:30,8.00,0.77
2019-08-31 10:00,4.57,0.47
2019-08-31 10:30,10.67,0.92
2019-08-31 11:00,8.00,0.77
2019-08-31 11:30,10.67,0.95
2019-08-31 12:00,10.67,0.83
2019-08-31 12:30,4.57,0.67
2019-08-31 13:00,10.67,0.97
2019-08-31 13:30,4.57,0.68
2019-08-31 14:00,4.57,0.62
2019-08-31 14:30,4.57,0.66
2019-08-31 15:00,8.00,0.89
2019-08-31 15:30,8.00,0.93
2019-08-31 16:00,4.57,0.64
2019-08-31 16:30,4.57,0.64
2019-08-31 17:00,4.57,0.70
2019-08-31 17:30,4.00,0.61
2019-08-31 18:00,4.00,0.53
2019-08-31 18:30,4.57,0.48
2019-08-31 19:00,4.00,0.57
2019-08-31 19:30,4.00,0.57
2019-08-31 20:00,4.00,0.61
2019-08-31 20:30,4.00,0.57
2019-08-31 21:00,4.57,0.56
2019-08-31 21:30,4.00,0.49
2019-08-31 22:00,4.00,0.61
2019-08-31 22:30,4.00,0.60
2019-08-31 23:00,4.00,0.57
2019-08-31 23:30,4.00,0.53
2019-09-01 00:00,3.56,0.50
2019-09-01 00:30,3.56,0.44
2019-09-01 01:00,3.56,0.47
2019-09-01 01:30,3.56,0.44
2019-09-01 02:00,3.56,0.47
2019-09-01 02:30,4.00,0.50
2019-09-01 03:00,3.20,0.44
2019-09-01 03:30,3.56,0.45
2019-09-01 04:00,3.56,0.44
2019-09-01 04:30,3.56,0.40
2019-09-01 05:00,3.56,0.39
2019-09-01 05:30,3.56,0.37
2019-09-01 06:00,10.67,0.82
2019-09-01 06:30,3.56,0.36
2019-09-01 07:00,10.67,0.76
2019-09-01 07:30,10.67,0.77
2019-09-01 08:00,10.67,0.73
2019-09-01 08:30,4.00,0.30
2019-09-01 09:00,3.56,0.35
2019-09-01 09:30,3.56,0.33
2019-09-01 10:00,3.56,0.33
2019-09-01 10:30,8.00,0.61
2019-09-01 11:00,8.00,0.66
2019-09-01 11:30,10.67,0.72
2019-09-01 12:00,8.00,0.67
2019-09-01 12:30,8.00,0.69
2019-09-01 13:00,8.00,0.58
2019-09-01 13:30,6.40,0.52
2019-09-01 14:00,4.00,0.33
2019-09-01 14:30,3.56,0.32
2019-09-01 15:00,4.00,0.35
2019-09-01 15:30,3.56,0.37
2019-09-01 16:00,6.40,0.64
2019-09-01 16:30,3.56,0.41
2019-09-01 17:00,3.56,0.41
2019-09-01 17:30,10.67,0.80
2019-09-01 18:00,4.00,0.39
2019-09-01 18:30,3.56,0.37
2019-09-01 19:00,3.56,0.39
2019-09-01 19:30,3.56,0.44
2019-09-01 20:00,3.56,0.47
2019-09-01 20:30,3.56,0.52
2019-09-01 21:00,3.56,0.50
2019-09-01 21:30,3.56,0.54
2019-09-01 22:00,3.56,0.52
2019-09-01 22:30,3.56,0.52
2019-09-01 23:00,3.56,0.49
2019-09-01 23:30,3.56,0.49
2019-09-02 00:00,3.56,0.45
2019-09-02 00:30,3.56,0.43
2019-09-02 01:00,3.20,0.38
2019-09-02 01:30,3.20,0.42
2019-09-02 02:00,3.20,0.32
2019-09-02 02:30,8.00,0.71
2019-09-02 03:00,3.56,0.32
2019-09-02 03:30,3.20,0.32
2019-09-02 04:00,3.56,0.34
2019-09-02 04:30,3.20,0.30
2019-09-02 05:00,8.00,0.75
2019-09-02 05:30,3.56,0.41
2019-09-02 06:00,8.00,0.76
2019-09-02 06:30,3.56,0.34
2019-09-02 07:00,3.20,0.32
2019-09-02 07:30,8.00,0.73
2019-09-02 08:00,8.00,0.75
2019-09-02 08:30,8.00,0.69
2019-09-02 09:00,8.00,0.70
2019-09-02 09:30,8.00,0.77
2019-09-02 10:00,8.00,0.84
2019-09-02 10:30,8.00,0.70
2019-09-02 11:00,8.00,0.74
2019-09-02 11:30,8.00,0.71
2019-09-02 12:00,8.00,0.82
2019-09-02 12:30,8.00,0.76
2019-09-02 13:00,8.00,0.74
2019-09-02 13:30,8.00,0.82
2019-09-02 14:00,8.00,0.68
2019-09-02 14:30,8.00,0.86
2019-09-02 15:00,8.00,0.89
2019-09-02 15:30,8.00,0.80
2019-09-02 16:00,3.56,0.41
2019-09-02 16:30,3.56,0.54
2019-09-02 17:00,3.56,0.57
2019-09-02 17:30,3.56,0.65
2019-09-02 18:00,4.00,0.69
2019-09-02 18:30,8.00,1.10
2019-09-02 19:00,4.00,0.75
2019-09-02 19:30,4.00,0.77
2019-09-02 20:00,8.00,1.20
2019-09-02 20:30,4.00,0.77
2019-09-02 21:00,4.00,0.73
2019-09-02 21:30,8.00,1.05
2019-09-02 22:00,8.00,0.97
2019-09-02 22:30,4.00,0.57
2019-09-02 23:00,8.00,0.99
2019-09-02 23:30,4.00,0.56
2019-09-03 00:00,8.00,0.91
2019-09-03 00:30,8.00,0.89
2019-09-03 01:00,8.00,1.05
2019-09-03 01:30,8.00,0.88
2019-09-03 02:00,8.00,0.80
2019-09-03 02:30,8.00,0.80
2019-09-03 03:00,8.00,0.85
2019-09-03 03:30,8.00,0.81
2019-09-03 04:00,8.00,0.83
2019-09-03 04:30,8.00,0.83
2019-09-03 05:00,8.00,0.79
2019-09-03 05:30,8.00,0.81
2019-09-03 06:00,8.00,0.84
2019-09-03 06:30,8.00,0.81
2019-09-03 07:00,8.00,0.81
2019-09-03 07:30,8.00,0.75
2019-09-03 08:00,8.00,0.76
2019-09-03 08:30,8.00,0.76
2019-09-03 09:00,8.00,0.76
2019-09-03 09:30,8.00,0.71
2019-09-03 10:00,8.00,0.74
2019-09-03 10:30,8.00,0.69
2019-09-03 11:00,8.00,0.75
2019-09-03 11:30,8.00,0.76
2019-09-03 12:00,8.00,0.72
2019-09-03 12:30,8.00,0.71
2019-09-03 13:00,8.00,0.82
2019-09-03 13:30,4.00,0.45
2019-09-03 14:00,4.00,0.57
2019-09-03 14:30,8.00,0.96
2019-09-03 15:00,4.00,0.57
2019-09-03 15:30,4.00,0.63
2019-09-03 16:00,8.00,1.04
2019-09-03 16:30,4.00,0.79
2019-09-03 17:00,4.00,0.84
2019-09-03 17:30,8.00,1.08
2019-09-03 18:00,8.00,1.13
2019-09-03 18:30,8.00,1.17
2019-09-03 19:00,8.00,1.18
2019-09-03 19:30,8.00,1.15
2019-09-03 20:00,8.00,1.07
2019-09-03 20:30,8.00,1.06
2019-09-03 21:00,4.57,0.77
2019-09-03 21:30,4.57,0.80
2019-09-03 22:00,4.57,0.89
2019-09-03 22:30,4.57,0.84
2019-09-03 23:00,8.00,1.05
2019-09-03 23:30,4.57,0.91
2019-09-04 00:00,4.57,0.97
2019-09-04 00:30,4.57,0.84
2019-09-04 01:00,4.57,0.74
2019-09-04 01:30,5.33,0.72
2019-09-04 02:00,5.33,1.00
2019-09-04 02:30,5.33,1.05
2019-09-04 03:00,5.33,0.98
2019-09-04 03:30,5.33,0.99
2019-09-04 04:00,4.57,1.04
2019-09-04 04:30,5.33,1.06
2019-09-04 05:00,5.33,1.04
2019-09-04 05:30,5.33,1.07
2019-09-04 06:00,5.33,1.11
2019-09-04 06:30,5.33,1.09
2019-09-04 07:00,5.33,1.07
2019-09-04 07:30,5.33,1.01
2019-09-04 08:00,5.33,1.02
2019-09-04 08:30,5.33,1.00
2019-09-04 09:00,5.33,0.95
2019-09-04 09:30,5.33,1.06
2019-09-04 10:00,5.33,1.03
2019-09-04 10:30,5.33,0.98
2019-09-04 11:00,6.40,0.93
2019-09-04 11:30,5.33,0.97
2019-09-04 12:00,5.33,0.95
2019-09-04 12:30,6.40,1.01
2019-09-04 13:00,5.33,0.97
2019-09-04 13:30,5.33,1.00
2019-09-04 14:00,5.33,1.01
2019-09-04 14:30,6.40,1.10
2019-09-04 15:00,5.33,1.04
2019-09-04 15:30,5.33,0.99
2019-09-04 16:00,6.40,0.99
2019-09-04 16:30,5.33,1.05
2019-09-04 17:00,6.40,1.12
2019-09-04 17:30,5.33,1.11
2019-09-04 18:00,4.57,1.16
2019-09-04 18:30,5.33,1.09
2019-09-04 19:00,5.33,1.08
2019-09-04 19:30,5.33,1.02
2019-09-04 20:00,6.40,1.04
2019-09-04 20:30,5.33,0.89
2019-09-04 21:00,5.33,0.86
2019-09-04 21:30,5.33,0.92
2019-09-04 22:00,5.33,0.93
2019-09-04 22:30,5.33,0.79
2019-09-04 23:00,6.40,0.90
2019-09-04 23:30,6.40,0.91
2019-09-05 00:00,5.33,0.91
2019-09-05 00:30,6.40,0.89
2019-09-05 01:00,6.40,0.93
2019-09-05 01:30,6.40,1.00
2019-09-05 02:00,6.40,0.99
2019-09-05 02:30,5.33,0.91
2019-09-05 03:00,6.40,0.89
2019-09-05 03:30,6.40,0.99
2019-09-05 04:00,5.33,0.91
2019-09-05 04:30,5.33,0.96
2019-09-05 05:00,5.33,0.98
2019-09-05 05:30,6.40,1.07
2019-09-05 06:00,5.33,0.97
2019-09-05 06:30,5.33,1.00
2019-09-05 07:00,5.33,0.96
2019-09-05 07:30,5.33,1.00
2019-09-05 08:00,5.33,0.98
2019-09-05 08:30,5.33,1.04
2019-09-05 09:00,5.33,1.02
2019-09-05 09:30,5.33,1.08
2019-09-05 10:00,5.33,1.03
2019-09-05 10:30,5.33,1.05
2019-09-05 11:00,5.33,1.06
2019-09-05 11:30,5.33,1.10
2019-09-05 12:00,5.33,1.01
2019-09-05 12:30,5.33,1.03
2019-09-05 13:00,5.33,1.00
2019-09-05 13:30,5.33,0.98
2019-09-05 14:00,5.33,0.98
2019-09-05 14:30,5.33,0.97
2019-09-05 15:00,5.33,0.99
2019-09-05 15:30,5.33,0.92
2019-09-05 16:00,5.33,1.04
2019-09-05 16:30,5.33,0.96
2019-09-05 17:00,5.33,1.04
2019-09-05 17:30,5.33,1.06
2019-09-05 18:00,4.57,1.03
2019-09-05 18:30,5.33,0.99
2019-09-05 19:00,6.40,1.04
2019-09-05 19:30,5.33,1.13
2019-09-05 20:00,4.57,1.05
2019-09-05 20:30,5.33,1.04
2019-09-05 21:00,6.40,1.00
2019-09-05 21:30,5.33,1.01
2019-09-05 22:00,6.40,1.02
2019-09-05 22:30,5.33,1.07
2019-09-05 23:00,5.33,1.07
2019-09-05 23:30,6.40,1.03
2019-09-06 00:00,6.40,0.92
2019-09-06 00:30,5.33,1.03
2019-09-06 01:00,6.40,1.00
2019-09-06 01:30,5.33,1.06
2019-09-06 02:00,6.40,1.07
2019-09-06 02:30,6.40,0.99
2019-09-06 03:00,6.40,1.00
2019-09-06 03:30,6.40,0.98
2019-09-06 04:00,6.40,0.98
2019-09-06 04:30,5.33,0.94
2019-09-06 05:00,6.40,1.01
2019-09-06 05:30,5.33,0.94
2019-09-06 06:00,6.40,0.97
2019-09-06 06:30,6.40,0.94
2019-09-06 07:00,6.40,0.95
2019-09-06 07:30,8.00,1.00
2019-09-06 08:00,6.40,1.01
2019-09-06 08:30,5.33,0.91
2019-09-06 09:00,5.33,1.00
2019-09-06 09:30,8.00,0.98
2019-09-06 10:00,8.00,0.97